Overview Statistics Trail Chart Weather Telemetry Raw packets
 

This is the latest recevied weather packets stored in our database for station/object W4UWO. If no packets are shown the sender has not sent any weather packets the latest 10 day(s).

<< 110 111 112 113 114 >>
Time Temp. Humidity Pressure Rain* Wind** Luminosity Snow
1787786883 28.33° C 63% 1015.9 hPa 0 mm - 71 W/m² -
1787786578 28.33° C 64% 1016 hPa 0 mm - 56 W/m² -
1787786273 28.33° C 63% 1015.8 hPa 0 mm - 64 W/m² -
1787785969 28.33° C 64% 1015.8 hPa 0 mm - 73 W/m² -
1787785664 28.33° C 63% 1015.7 hPa 0 mm - 88 W/m² -
1787785364 28.89° C 63% 1015.7 hPa 0 mm - 103 W/m² -
1787785063 28.33° C 63% 1015.5 hPa 0 mm - 110 W/m² -
1787784758 28.33° C 65% 1015.6 hPa 0 mm - 123 W/m² -
1787784458 28.33° C 64% 1015.6 hPa 0 mm - 127 W/m² -
1787784157 28.33° C 64% 1015.6 hPa 0 mm - 136 W/m² -
1787783853 28.89° C 63% 1015.6 hPa 0 mm - 141 W/m² -
1787783549 28.33° C 64% 1015.5 hPa 0 mm - 140 W/m² -
1787783249 28.89° C 63% 1015.7 hPa 0 mm - 214 W/m² -
1787782939 28.89° C 65% 1015.5 hPa 0 mm - 222 W/m² -
1787782638 28.33° C 65% 1015.5 hPa 0 mm - 292 W/m² -
1787782334 28.89° C 65% 1015.5 hPa 0 mm - 259 W/m² -
1787782029 28.33° C 67% 1015.4 hPa 0 mm - 353 W/m² -
1787781724 28.33° C 66% 1015.5 hPa 0 mm - 185 W/m² -
1787781422 28.33° C 67% 1015.6 hPa 0 mm - 449 W/m² -
1787781121 28.33° C 69% 1015.5 hPa 0 mm - 320 W/m² -
1787780821 27.78° C 69% 1015.2 hPa 0 mm - 453 W/m² -
1787780521 27.78° C 71% 1015.4 hPa 0 mm - 399 W/m² -
1787780216 27.78° C 72% 1015.2 hPa 0 mm - 203 W/m² -
1787779912 27.78° C 70% 1015.3 hPa 0 mm - 240 W/m² -
1787779612 27.78° C 71% 1015.3 hPa 0 mm - 264 W/m² -

* Rain latest hour (hover to see other rain measurements)
** Current wind speed in m/s (hover to see current wind gust speed)